Weather History for Hartford, CT

Change the Weather History Date:

Monday, January 7, 2013

  Actual Average Record
Temperature  
Mean Temperature 30 °F -  
Max Temperature 39 °F 35 °F 66 °F (2008)
Min Temperature 21 °F 18 °F 2 °F (1940)
Degree Days  
Heating Degree Days 35    
Moisture  
Dew Point 22 °F    
Average Humidity 70    
Maximum Humidity 92    
Minimum Humidity 43    
Precipitation  
Precipitation 0.00 in - - ()
Sea Level Pressure  
Sea Level Pressure 30.26 in    
Wind  
Wind Speed 3 mph (NW)    
Max Wind Speed 12 mph    
Max Gust Speed 16 mph    
Visibility 9 miles    
Events      
Averages and records for this station are not official NWS values.
T = Trace of Precipitation, MM = Missing Value Source: NWS Daily Summary

Daily Weather History Graph

Daily Weather History Graph

Search for Another Location

Airport:

Trip Planner

Search our weather history database for the weather conditions in past years. The results will help you decide how hot, cold, wet, or windy it might be!

Date:

Astronomy

Jan. 07, 2013 Rise Set
Actual Time 7:17 AM EST 4:36 PM EST
Civil Twilight 6:46 AM EST 5:07 PM EST
Nautical Twilight 6:11 AM EST 5:42 PM EST
Astronomical Twilight 5:38 AM EST 6:16 PM EST
Moon 2:37 AM EST (1/7) 12:46 PM EST (1/7)
Length of Visible Light 10h 21m
Length of Day
9h 18m
Waning Crescent, 23% of the Moon is Illuminated
Jan 7
Waning Crescent
Jan 11
New
Jan 18
First Quarter
Jan 26
Full
Feb 3
Last Quarter

Hourly Weather History & Observations

Time (EST) Temp. Windchill Dew Point Humidity Pressure Visibility Wind Dir Wind Speed Gust Speed Precip Events Conditions
12:53 AM 28.0 °F - 25.0 °F 88% 30.02 in 7.0 mi Calm Calm - N/A   Clear
1:53 AM 28.9 °F - 24.1 °F 82% 30.04 in 7.0 mi Calm Calm - N/A   Clear
2:53 AM 28.0 °F - 24.1 °F 85% 30.06 in 9.0 mi Calm Calm - N/A   Scattered Clouds
3:53 AM 26.1 °F - 24.1 °F 92% 30.07 in 6.0 mi Calm Calm - N/A   Mostly Cloudy
4:53 AM 27.0 °F - 25.0 °F 92% 30.10 in 6.0 mi Calm Calm - N/A   Overcast
5:53 AM 30.9 °F 25.2 °F 26.1 °F 82% 30.12 in 7.0 mi West 5.8 mph - N/A   Partly Cloudy
6:53 AM 34.0 °F - 26.1 °F 73% 30.16 in 10.0 mi Calm Calm - N/A   Partly Cloudy
7:53 AM 28.0 °F - 25.0 °F 88% 30.20 in 6.0 mi Calm Calm - N/A   Clear
8:53 AM 37.9 °F 32.1 °F 26.1 °F 62% 30.23 in 10.0 mi NW 8.1 mph - N/A   Clear
9:53 AM 39.0 °F 32.8 °F 25.0 °F 57% 30.27 in 10.0 mi NW 9.2 mph 16.1 mph N/A   Clear
10:53 AM 39.0 °F 32.3 °F 23.0 °F 53% 30.30 in 10.0 mi NW 10.4 mph - N/A   Partly Cloudy
11:53 AM 39.0 °F 31.8 °F 21.9 °F 50% 30.30 in 10.0 mi NNW 11.5 mph - N/A   Clear
12:53 PM 39.9 °F 34.5 °F 21.9 °F 49% 30.31 in 10.0 mi NW 8.1 mph - N/A   Clear
1:53 PM 39.9 °F 35.1 °F 19.9 °F 45% 30.33 in 10.0 mi North 6.9 mph - N/A   Clear
2:53 PM 39.0 °F 32.8 °F 18.0 °F 43% 30.35 in 10.0 mi NNW 9.2 mph - N/A   Clear
3:53 PM 39.0 °F 34.8 °F 18.0 °F 43% 30.36 in 10.0 mi NNW 5.8 mph - N/A   Clear
4:53 PM 37.0 °F 32.4 °F 19.0 °F 48% 30.40 in 10.0 mi West 5.8 mph - N/A   Clear
6:53 PM 30.9 °F - 19.9 °F 64% 30.40 in 10.0 mi Calm Calm - N/A   Clear
7:53 PM 27.0 °F - 21.0 °F 78% 30.40 in 10.0 mi Calm Calm - N/A   Clear
8:53 PM 25.0 °F - 19.9 °F 81% 30.39 in 10.0 mi Calm Calm - N/A   Clear
9:53 PM 24.1 °F - 19.0 °F 81% 30.39 in 10.0 mi Calm Calm - N/A   Clear
10:53 PM 21.9 °F - 19.0 °F 89% 30.38 in 9.0 mi Calm Calm - N/A   Clear
11:53 PM 23.0 °F - 19.0 °F 85% 30.38 in 9.0 mi Calm Calm - N/A   Clear